{"data":{"norad_id":66717,"epoch":"2026-09-18T23:26:05.407872Z","epoch_age_seconds":149929,"freshness":"FRESH","line1":"1 66717U 25276BD  26261.97645148  .00005149  00000+0  22767-3 0  9995","line2":"2 66717  97.4126 334.5030 0001281  56.8566 303.2793 15.22133711 43958","mean_motion":15.22133711,"eccentricity":0.0001281,"inclination_deg":97.4126,"raan_deg":334.503,"arg_perigee_deg":56.8566,"mean_anomaly_deg":303.2793,"bstar":0.00022767,"rev_number":4395,"period_min":94.604040998078,"perigee_km":498.524838357,"apogee_km":500.28686483558,"semimajor_km":6877.5428515963,"source":"CELESTRAK","updated_at":"2026-09-20T09:00:34.750157Z"}}